Tracking 29892 objects as of 21-Nov-2024
HD Live streaming from Space Station
objects crossing your sky now

COSMOS 1589

Track COSMOS 1589 now!
10-day predictions
COSMOS 1589 is classified as:


NORAD ID: 15171
Int'l Code: 1984-084A
Perigee: 1,499.7 km
Apogee: 1,508.8 km
Inclination: 82.6 °
Period: 115.9 minutes
Semi major axis: 7875 km
RCS: 12.0988 m2 (large)
Launch date: August 8, 1984
Source: Commonwealth of Independent States (former USSR) (CIS)
Launch site: PLESETSK MISSILE AND SPACE COMPLEX (PKMTR)
Your satellite tracking list
Your tracking list is empty




NASA's NSSDC Master Catalog

Two Line Element Set (TLE):
1 15171U 84084A   24325.92242087  .00000027  00000-0  12693-3 0  9992
2 15171  82.5950 147.0979 0005825 195.2368 237.5561 12.42243350826682
Source of the keplerian elements: AFSPC